EW9240 Weather Reports


time (UTC)temp
F
wind
direction
speed
knots
gust
knots
rain 1hr
in
rain 24hr
in
rain mn
in
humidity
%
barometer
mb
20260504150109 56 218 2.6 7.0 0.00 0.00 0.00 81 1011.0
20260504081555 62 148 0.0 0.0 0.00 0.00 0.00 72 1006.2
20260504050000 72 283 0.0 0.0 0.00 0.00 0.00 55 1005.1
20260504044542 74 283 0.0 0.0 0.00 0.00 0.00 54 1005.0
20260504043029 74 283 0.0 0.0 0.00 0.00 0.00 52 1005.0
20260504041511 76 283 0.0 0.0 0.00 0.00 0.00 51 1004.8
20260504040048 77 283 0.0 0.0 0.00 0.00 0.00 48 1004.7
20260504034516 79 283 0.0 0.0 0.00 0.00 0.00 45 1004.5
20260504033102 79 285 0.0 0.0 0.00 0.00 0.00 44 1004.4
20260504031546 81 285 0.0 0.9 0.00 0.00 0.00 41 1004.2
20260504030024 84 285 0.0 3.5 0.00 0.00 0.00 40 1004.1
20260504024504 85 273 0.0 0.0 0.00 0.00 0.00 36 1004.1
20260504023102 86 266 0.0 3.5 0.00 0.00 0.00 35 1004.1
20260504021515 86 276 0.0 3.5 0.00 0.00 0.00 35 1004.1
20260504020104 86 307 0.0 4.3 0.00 0.00 0.00 34 1004.1
20260504014557 87 266 1.7 6.1 0.00 0.00 0.00 33 1004.2
20260504013113 88 320 0.9 5.2 0.00 0.00 0.00 32 1004.3
20260504011549 88 317 0.0 6.1 0.00 0.00 0.00 32 1004.3
20260504010024 89 266 1.7 5.2 0.00 0.00 0.00 30 1004.4
20260504004509 89 289 2.6 5.2 0.00 0.00 0.00 30 1004.6
20260504003058 89 294 1.7 5.2 0.00 0.00 0.00 29 1004.7
20260504001528 89 288 1.7 5.2 0.00 0.00 0.00 30 1004.7
20260504000013 89 313 1.7 5.2 0.00 0.00 0.00 31 1004.8
20260503234533 89 311 1.7 5.2 0.00 0.00 0.00 30 1004.9
20260503233016 89 288 0.9 3.5 0.00 0.00 0.00 31 1005.1
20260503231601 88 300 0.0 5.2 0.00 0.00 0.00 31 1005.2
20260503230014 89 289 0.9 5.2 0.00 0.00 0.00 32 1005.5
20260503224557 88 275 1.7 4.3 0.00 0.00 0.00 32 1005.7
20260503223034 87 290 0.0 5.2 0.00 0.00 0.00 33 1005.9
20260503221521 88 295 0.0 5.2 0.00 0.00 0.00 35 1006.2
20260503220106 87 268 0.0 2.6 0.00 0.00 0.00 35 1006.4
20260503214516 86 272 0.9 3.5 0.00 0.00 0.00 37 1006.5
20260503213105 86 297 0.0 5.2 0.00 0.00 0.00 38 1006.7
20260503211539 85 307 2.6 6.1 0.00 0.00 0.00 41 1006.9
20260503210021 84 279 0.9 5.2 0.00 0.00 0.00 45 1007.1
20260503204600 83 288 0.0 4.3 0.00 0.00 0.00 47 1007.4
20260503203037 81 297 0.0 3.5 0.00 0.00 0.00 48 1007.6
20260503201521 80 297 1.7 5.2 0.00 0.00 0.00 48 1007.8
20260503200106 80 341 1.7 4.3 0.00 0.00 0.00 49 1008.0
20260503194549 79 292 0.9 3.5 0.00 0.00 0.00 52 1008.2
20260503193040 78 282 1.7 3.5 0.00 0.00 0.00 51 1008.4
20260503191514 77 293 0.9 4.3 0.00 0.00 0.00 53 1008.6
20260503190106 76 302 0.9 4.3 0.00 0.00 0.00 56 1008.8
20260503184539 75 280 0.0 2.6 0.00 0.00 0.00 57 1009.0
20260503183020 74 286 0.9 3.5 0.00 0.00 0.00 58 1009.1
20260503181633 73 288 0.0 4.3 0.00 0.00 0.00 61 1009.3
20260503180041 71 278 0.0 4.3 0.00 0.00 0.00 64 1009.4
20260503174557 71 273 0.9 4.3 0.00 0.00 0.00 64 1009.6
20260503173031 70 271 0.0 3.5 0.00 0.00 0.00 66 1009.7
20260503171520 69 280 0.9 3.5 0.00 0.00 0.00 67 1009.8